COSMOS 2251 DEB, 33913

Orbit data source: Space-Track

COSMOS 2251 DEB, 33913 is space debris in LEO originally from a launch on Wed, 16 Jun 1993 UTC launched from the Plesetsk Missile And Space Complex (PKMTR). The debris from Iridium 33, an American commercial communications satellite, has been tracked extensively since its accidental collision with the defunct Russian satellite Cosmos 2251 in 2009. This event, occurring at high speed in low Earth orbit (LEO), generated thousands of pieces of space debris, significantly increasing the risk of further collisions. The Iridium 33 debris cloud has impacted space traffic management and orbital debris mitigation strategies, making it a subject of ongoing study in space situational awareness.

Loading next visibility...
Identifier
33913, 1993-036DS
Orbit
LEO
Country
Flag of CISCIS
Related business
Manufacturer
Unknown
Mission
Spacecraft
Bus & Motor
Unknown
Mass
Unknown
Launch date (UTC)
1993-06-16 (33 years ago)
Launch vehicle
Unknown
Launch site
Plesetsk Missile And Space Complex (PKMTR)
Object type
Payload
Rocket body
Debris
Shape & HBR
Unknown shape, 0.1 m
Radar Cross Section
Small (<0.1 m²)

Expand to show TLE details & history
Last TLE update: 10 hours ago

TLE from 10 hours ago
0 COSMOS 2251 DEB
1 33913U 93036DS  25353.91409227  .00001432  00000-0  38347-3 0  9990
2 33913  74.0320 170.2030 0048168 271.4359 204.7154 14.48512408885616
Epoch: 2025-12-19T21:56Z
TLE epoch observation values (Epoch: 2025-12-19T21:56:17.572Z)
Latitude
59.9528°
Longitude
-97.09312°
Altitude
771.492 km
Speed
7.458 km/s
True Right ascension
21h 22m 54s
True Declination
59° 48' 14"
Sunlit
Object was in daylight at epoch
Visualization orbit readout
Latitude
Unknown
Longitude
Unknown
Altitude
Unknown
Speed
Unknown
Apparent Right ascension
Unknown
Apparent Declination
Unknown
Sunlit
N/A
Visualization observer readout
Local Sidereal Time
06:42:49
Azimuth
Unknown
Elevation
Unknown
Doppler factor
Unknown
Orbital elements
Apogee altitude
762.351 km
Perigee altitude
693.892 km
Semi-major axis
7,106.259 km
Eccentricity
0.00482
Inclination
74.032°
RAAN
170.203°
Arg. of periapsis
271.4359°
True anomaly
204.48587°
Mean anomaly
204.7154°
Eccentric anomaly
204.60051°
Mean motion
3.62311 °/min
Orbital period
99.36 mins
BSTAR
0.00038347
Loading maneuver chart data...
Computing Atmospheric mass density...

Documentation

Showing up to 5 results
|